Date,TemperatureHighF,TemperatureAvgF,TemperatureLowF,DewpointHighF,DewpointAvgF,DewpointLowF,HumidityHigh,HumidityAvg,HumidityLow,PressureMaxIn,PressureMinIn,WindSpeedMaxMPH,WindSpeedAvgMPH,GustSpeedMaxMPH,PrecipitationSumIn
2013-1-1,44,31,17,15,7,-5,45,37,30,29.53,29.32,0,0,0,0.00
2013-1-2,33,19,10,6,-3,-10,45,38,32,29.71,29.50,0,0,0,0.00
2013-1-3,29,14,2,-1,-8,-18,45,36,23,29.74,29.62,0,0,0,0.00
2013-1-4,42,27,13,14,8,-4,57,44,31,29.59,29.41,0,0,0,0.00
2013-1-5,48,32,21,17,10,6,53,41,29,29.85,29.44,0,0,0,0.00
2013-1-6,45,32,23,21,15,8,64,49,33,29.80,29.53,0,0,0,0.00
2013-1-7,49,31,20,25,13,6,67,48,30,29.97,29.56,0,0,0,0.00
2013-1-8,48,33,19,20,15,6,62,47,30,29.94,29.85,0,0,0,0.00
2013-1-9,44,35,23,24,18,13,69,51,34,29.97,29.59,0,0,0,0.00
2013-1-10,57,40,30,21,14,10,50,35,26,30.12,29.65,0,0,0,0.00
2013-1-11,40,33,25,31,18,12,82,54,39,30.12,29.80,0,0,0,0.00
2013-1-12,44,39,36,36,34,31,85,82,74,29.83,29.71,0,0,0,0.00
2013-1-13,52,46,39,45,41,35,89,82,71,29.74,29.59,0,0,0,0.00
2013-1-14,62,51,40,48,34,17,85,57,27,29.83,29.44,0,0,0,0.00
2013-1-15,52,37,31,19,14,12,50,39,28,29.91,29.83,0,0,0,0.00
2013-1-16,34,32,30,28,23,12,82,68,42,29.83,29.41,0,0,0,0.00
2013-1-17,45,34,27,34,20,4,84,58,35,29.68,29.41,0,0,0,0.00
2013-1-18,42,22,16,10,-3,-8,37,32,23,30.03,29.65,0,0,0,0.00
2013-1-19,47,36,20,21,12,-3,50,38,29,29.94,29.47,0,0,0,0.00
2013-1-20,59,40,26,25,15,0,50,36,26,29.50,29.12,0,0,0,0.00
2013-1-21,32,24,18,12,2,-6,65,38,28,29.68,29.38,0,0,0,0.00
2013-1-22,40,20,11,12,0,-12,68,44,29,29.65,29.32,0,0,0,0.00
2013-1-23,30,11,5,1,-14,-21,36,31,27,29.74,29.65,0,0,0,0.00
2013-1-24,26,11,1,-4,-15,-24,34,28,25,29.80,29.65,0,0,0,0.00
2013-1-25,32,17,6,1,-11,-20,48,28,23,29.88,29.65,0,0,0,0.00
2013-1-26,36,17,7,7,-4,-12,56,40,28,29.83,29.59,0,0,0,0.00
2013-1-27,39,20,11,8,-6,-13,38,31,25,30.03,29.83,0,0,0,0.00
2013-1-28,32,24,16,20,6,-7,75,48,30,30.03,29.59,0,0,0,0.00
2013-1-29,34,30,24,27,21,17,78,69,54,29.77,29.59,0,0,0,0.00
2013-1-30,60,47,33,54,41,27,93,80,62,29.74,29.06,0,0,0,0.00
2013-1-31,60,47,29,55,29,4,86,52,28,29.18,28.59,0,0,0,0.00
2013-2-1,39,28,20,8,1,-6,34,30,25,29.68,29.18,0,0,0,0.00
2013-2-2,48,25,14,8,-2,-8,36,31,20,29.83,29.62,0,0,0,0.00
2013-2-3,30,24,19,14,9,0,65,52,34,29.65,29.32,0,0,0,0.00
2013-2-4,45,24,15,12,2,-4,64,40,28,29.53,29.29,0,0,0,0.00
2013-2-5,31,25,17,12,4,-1,59,41,32,29.59,29.50,0,0,0,0.00
2013-2-6,48,30,23,22,10,-2,67,44,31,29.88,29.50,0,0,0,0.00
2013-2-7,44,25,14,7,-2,-6,45,30,22,30.09,29.85,0,0,0,0.00
2013-2-8,33,25,17,25,13,-1,83,60,35,30.06,29.18,0,0,0,0.00
2013-2-9,27,20,13,14,4,-8,77,53,36,29.77,29.15,0,0,0,0.00
2013-2-10,47,24,13,7,-1,-8,46,34,19,29.97,29.77,0,0,0,0.00
2013-2-11,37,27,13,30,13,-4,80,56,43,29.91,29.29,0,0,0,0.00
2013-2-12,58,38,29,34,18,13,88,44,26,29.47,29.21,0,0,0,0.00
2013-2-13,57,35,22,22,14,9,59,43,25,29.44,29.29,0,0,0,0.00
2013-2-14,58,36,27,21,13,9,55,40,25,29.59,29.29,0,0,0,0.00
2013-2-15,57,38,23,28,20,11,80,51,28,29.59,29.47,0,0,0,0.00
2013-2-16,40,35,30,26,21,15,75,57,39,29.53,29.41,0,0,0,0.00
2013-2-17,25,21,16,9,1,-7,63,41,32,29.26,29.00,0,0,0,0.00
2013-2-18,36,23,12,6,-5,-10,35,29,22,29.74,29.26,0,0,0,0.00
2013-2-19,54,35,18,37,15,-6,87,47,26,29.77,29.18,0,0,0,0.00
2013-2-20,42,32,24,35,12,0,88,45,30,29.35,29.12,0,0,0,0.00
2013-2-21,44,28,23,13,4,0,43,35,28,29.77,29.35,0,0,0,0.00
2013-2-22,49,32,19,18,10,4,57,41,28,29.94,29.77,0,0,0,0.00
2013-2-23,39,33,27,29,19,12,85,56,41,29.91,29.50,0,0,0,0.00
2013-2-24,36,33,31,32,29,27,92,85,78,29.50,29.26,0,0,0,0.00
2013-2-25,46,35,27,31,24,18,85,67,39,29.83,29.47,0,0,0,0.00
2013-2-26,57,36,27,32,21,16,81,56,31,29.91,29.74,0,0,0,0.00
2013-2-27,40,37,34,38,33,22,92,86,56,29.74,29.15,0,0,0,0.00
2013-2-28,50,37,32,38,29,23,92,74,39,29.21,29.12,0,0,0,0.00
2013-3-1,53,38,30,36,20,14,78,51,29,29.26,29.09,0,0,0,0.00
2013-3-2,49,38,32,20,15,13,50,40,30,29.26,29.21,0,0,0,0.00
2013-3-3,48,36,32,22,16,13,62,44,32,29.23,29.15,0,0,0,0.00
2013-3-4,50,35,28,18,12,8,47,39,27,29.32,29.15,0,0,0,0.00
2013-3-5,50,37,29,22,14,10,61,41,28,29.62,29.32,0,0,0,0.00
2013-3-6,42,36,32,32,25,18,85,66,41,29.68,29.59,0,0,0,0.00
2013-3-7,36,33,30,25,22,18,76,64,51,29.62,29.56,0,0,0,0.00
2013-3-8,37,32,30,26,22,12,80,66,41,30.56,29.50,0,0,0,0.00
2013-3-9,53,37,25,19,14,9,66,41,23,31.01,30.56,0,0,0,0.00
2013-3-10,49,36,23,27,20,15,79,53,31,31.01,31.01,0,0,0,0.00
2013-3-11,55,42,34,34,26,21,78,54,29,31.01,31.01,0,0,0,0.00
2013-3-12,56,49,40,50,42,33,90,80,52,31.01,31.01,0,0,0,0.00
2013-3-13,58,44,30,48,22,8,89,46,23,31.01,31.01,0,0,0,0.00
2013-3-14,44,31,21,12,6,-4,44,33,26,31.01,31.01,0,0,0,0.00
2013-3-15,44,32,19,16,5,-4,51,32,20,31.01,31.01,0,0,0,0.00
2013-3-16,44,35,26,17,7,2,51,32,21,31.01,31.01,0,0,0,0.00
2013-3-17,45,32,22,14,3,-6,44,30,20,31.01,31.01,0,0,0,0.00
2013-3-18,44,30,15,18,1,-11,63,30,20,31.01,31.01,0,0,0,0.00
2013-3-19,36,32,28,30,26,18,86,78,63,31.01,31.01,0,0,0,0.00
2013-3-20,45,32,23,21,12,7,75,46,28,31.01,31.01,0,0,0,0.00
2013-3-21,45,30,20,20,13,7,64,49,28,31.01,31.01,0,0,0,0.00
2013-3-22,50,34,26,17,10,6,66,37,27,31.01,31.01,0,0,0,0.00
2013-3-23,52,36,27,19,10,7,47,35,27,31.01,31.01,0,0,0,0.00
2013-3-24,54,39,30,20,13,7,51,35,26,31.01,31.01,0,0,0,0.00
2013-3-25,47,37,30,22,18,13,56,46,37,31.01,31.01,0,0,0,0.00
2013-3-26,54,41,33,20,15,9,50,36,23,31.01,31.01,0,0,0,0.00
2013-3-27,63,43,29,26,15,10,45,32,22,31.01,31.01,0,0,0,0.00
2013-3-28,54,43,35,28,22,17,74,45,26,31.01,31.01,0,0,0,0.00
2013-3-29,69,47,33,34,20,15,62,37,21,31.01,31.01,0,0,0,0.00
2013-3-30,65,48,34,26,16,8,52,31,16,31.01,31.01,0,0,0,0.00
2013-3-31,65,46,26,34,17,8,69,33,18,31.01,31.01,0,0,0,0.00
2013-4-1,67,48,33,40,28,6,83,51,24,31.01,31.01,0,0,0,0.00
2013-4-2,48,35,26,16,6,1,36,29,22,31.01,31.01,0,0,0,0.00
2013-4-3,51,38,29,15,6,1,41,27,19,31.01,31.01,0,0,0,0.00
2013-4-4,32,30,30,4,4,3,32,31,31,31.01,31.01,0,0,0,0.00